Location: Observatoire
(46.1952°N, 5.3391°E)
Time: 19:23:02
(UTC+01:00)

Injun/Solrad 3 - All Passes

Search period start: 18 February 2026 00:00
Search period end: 28 February 2026 00:00
Orbit: 873 x 983 km, 66.8° (Epoch: 18 February)

Date Brightness Start Highest point End Pass type
(mag) Time Alt. Az. Time Alt. Az. Time Alt. Az.
18 Feb - 10:20:20 10° SE 10:23:39 16° ESE 10:27:01 10° ENE daylight
18 Feb - 12:03:25 10° SSW 12:09:15 89° WNW 12:15:14 10° NNE daylight
18 Feb - 13:51:59 10° W 13:56:34 23° NW 14:01:15 10° NNE daylight
18 Feb - 15:44:28 10° NNW 15:45:32 10° N 15:46:37 10° N daylight
18 Feb - 17:32:14 10° N 17:35:03 13° NNE 17:37:53 10° NE daylight
18 Feb - 19:17:49 10° NNW 19:23:26 36° NE 19:29:11 10° ESE visible
18 Feb - 21:04:12 10° NW 21:10:09 52° WSW 21:16:15 10° S visible
19 Feb - 10:29:47 10° SSE 10:34:21 24° ESE 10:38:59 10° NE daylight
19 Feb - 12:14:32 10° SW 12:20:20 63° NW 12:26:16 10° NNE daylight
19 Feb - 14:04:06 10° WNW 14:08:04 18° NNW 14:12:05 10° NNE daylight
19 Feb - 17:43:02 10° N 17:46:40 16° NNE 17:50:22 10° ENE daylight
19 Feb - 19:28:43 10° NNW 19:34:41 49° NE 19:40:47 10° SE visible
19 Feb - 21:15:29 10° NW 21:21:02 36° WSW 21:26:41 10° S visible
20 Feb - 10:39:52 10° S 10:45:08 37° ESE 10:50:30 10° NE daylight
20 Feb - 12:25:56 10° WSW 12:31:30 45° NW 12:37:13 10° NNE daylight
20 Feb - 14:16:25 10° WNW 14:19:38 15° NNW 14:22:54 10° N daylight
20 Feb - 16:08:36 10° N 16:09:05 10° N 16:09:32 10° N daylight
20 Feb - 17:53:50 10° NNW 17:58:13 20° NNE 18:02:40 10° ENE daylight
20 Feb - 19:39:41 10° NNW 19:45:50 69° NE 19:52:08 10° SE visible
20 Feb - 21:27:00 10° NW 21:31:49 24° WSW 21:36:43 10° SSW visible
21 Feb - 10:50:20 10° SSW 10:55:59 55° ESE 11:01:47 10° NE daylight
21 Feb - 12:37:32 10° WSW 12:42:46 33° NW 12:48:08 10° NNE daylight
21 Feb - 14:28:54 10° NW 14:31:17 12° NNW 14:33:42 10° N daylight
21 Feb - 16:19:14 10° N 16:20:49 11° NNE 16:22:25 10° NNE daylight
21 Feb - 18:04:40 10° NNW 18:09:41 25° NE 18:14:46 10° E daylight
21 Feb - 19:50:43 10° NW 19:56:54 85° WSW 20:03:15 10° SSE visible
21 Feb - 21:38:59 10° WNW 21:42:33 16° WSW 21:46:08 10° SW visible
22 Feb - 09:18:47 10° SE 09:21:29 13° ESE 09:24:12 10° ENE daylight
22 Feb - 11:01:07 10° SSW 11:06:57 81° ESE 11:12:56 10° NE daylight
22 Feb - 12:49:21 10° W 12:54:08 25° NW 12:59:01 10° NNE daylight
22 Feb - 14:41:32 10° NNW 14:43:00 11° N 14:44:28 10° N daylight
22 Feb - 16:30:00 10° N 16:32:32 13° NNE 16:35:06 10° NE daylight
22 Feb - 18:15:32 10° NNW 18:21:03 33° NE 18:26:40 10° ESE daylight
22 Feb - 20:01:50 10° NW 20:07:54 59° WSW 20:14:06 10° SSE visible
23 Feb - 09:27:54 10° SSE 09:32:09 21° ESE 09:36:27 10° ENE daylight
23 Feb - 11:12:10 10° SW 11:17:59 71° NW 11:23:59 10° NNE daylight
23 Feb - 13:01:24 10° WNW 13:05:36 19° NNW 13:09:52 10° NNE daylight
23 Feb - 14:54:23 10° N 14:54:45 10° N 14:55:08 10° N daylight
23 Feb - 16:40:47 10° N 16:44:11 15° NNE 16:47:38 10° ENE daylight
23 Feb - 18:26:27 10° NNW 18:32:20 45° NE 18:38:20 10° ESE daylight
23 Feb - 20:13:04 10° NW 20:18:48 40° WSW 20:24:38 10° S visible
24 Feb - 09:37:49 10° S 09:42:54 32° ESE 09:48:04 10° NE daylight
24 Feb - 11:23:28 10° SW 11:29:07 50° NW 11:34:57 10° NNE daylight
24 Feb - 13:13:39 10° WNW 13:17:08 16° NNW 13:20:41 10° N daylight
24 Feb - 16:51:35 10° NNW 16:55:46 19° NNE 17:00:00 10° ENE daylight
24 Feb - 18:37:23 10° NNW 18:43:31 62° NE 18:49:46 10° SE visible
24 Feb - 20:24:30 10° NW 20:29:37 28° WSW 20:34:49 10° SSW visible
25 Feb - 09:48:10 10° S 09:53:44 48° ESE 09:59:25 10° NE daylight
25 Feb - 11:35:00 10° WSW 11:40:22 36° NW 11:45:53 10° NNE daylight
25 Feb - 13:26:04 10° NW 13:28:46 13° NNW 13:31:30 10° N daylight
25 Feb - 15:16:58 10° N 15:18:17 11° N 15:19:36 10° NNE daylight
25 Feb - 17:02:25 10° NNW 17:07:16 23° NE 17:12:10 10° E daylight
25 Feb - 18:48:23 10° NNW 18:54:36 86° ENE 19:00:58 10° SSE visible
25 Feb - 20:36:17 10° WNW 20:40:22 18° WSW 20:44:29 10° SW visible
26 Feb - 08:17:34 10° ESE 08:19:18 11° E 08:21:04 10° E daylight
26 Feb - 09:58:51 10° SSW 10:04:39 72° ESE 10:10:36 10° NE daylight
26 Feb - 11:46:45 10° W 11:51:42 27° NW 11:56:46 10° NNE daylight
26 Feb - 13:38:39 10° NNW 13:40:28 11° NNW 13:42:18 10° N daylight
26 Feb - 15:27:44 10° N 15:30:01 12° NNE 15:32:19 10° NE daylight
26 Feb - 17:13:17 10° NNW 17:18:39 30° NE 17:24:08 10° ESE daylight
26 Feb - 18:59:28 10° NW 19:05:37 67° WSW 19:11:54 10° SSE visible
26 Feb - 20:49:06 10° W 20:51:00 11° W 20:52:57 10° WSW visible
27 Feb - 08:26:05 10° SSE 08:29:57 18° ESE 08:33:51 10° ENE daylight
27 Feb - 10:09:49 10° SW 10:15:40 80° NW 10:21:41 10° NNE daylight
27 Feb - 11:58:43 10° W 12:03:08 21° NNW 12:07:38 10° NNE daylight
27 Feb - 13:51:20 10° NNW 13:52:13 10° N 13:53:05 10° N daylight
27 Feb - 15:38:32 10° N 15:41:41 14° NNE 15:44:53 10° NE daylight
27 Feb - 17:24:09 10° NNW 17:29:57 40° NE 17:35:52 10° ESE daylight
27 Feb - 19:10:40 10° NW 19:16:33 46° WSW 19:22:33 10° S visible
